Torna al catalogo

DELTA 1 DEB

AttivoSSO
NORAD 12285·DEBRIS·🇺🇸 United States

Lanciato Mar 5, 1978 da Vandenberg Space Force Base

Loading…

Prossimi Passaggi (prossime 24 ore)

TLE

AggiornatoSource: Space-Track

Epoca: Sep 14, 2026, 07:09 UTC

1 12285U 78026ED  26257.29859653  .00000396  00000-0  23528-3 0  9991
2 12285  99.0669 270.0889 0051683  84.1109 276.5950 14.12588347176268

Traccia DELTA 1 DEB in tempo reale con AllMySat

Download on the App Store